Location: Briis
(48.6240°N, 2.1211°E)
Time: 11:19:31
(UTC+00:00)

Lacrosse 5 - Pass Details

Date: 25 September 2020
Orbit: 716 x 723 km, 57.0° (Epoch: 23 October)

Event Time Altitude Azimuth Distance (km) Brightness Sun altitude
Exits shadow 02:58:27 42° 334° (NNW) 1,017 2.6 -26.6°
Maximum altitude 02:58:38 43° 340° (NNW) 1,014 2.6 -26.6°
Drops below altitude 10° 03:03:29 10° 52° (NE) 2,210 5.4 -25.9°
Sets 03:06:00 0° 59° (ENE) 3,133 6.5 -25.6°
